EW7114 Weather Reports


Display with metric or nautical units.
time (UTC)temp
F
wind
direction
speed
MPH
gust
MPH
rain 1hr
in
rain 24hr
in
rain mn
in
humidity
%
barometer
mb
20260505173051 56 153 9.0 15.0 0.00 0.02 0.02 50 1002.9
20260505172547 55 158 9.0 15.0 0.00 0.02 0.02 50 1002.8
20260505172046 54 151 9.0 14.0 0.00 0.02 0.02 49 1003.0
20260505171544 54 159 8.0 12.0 0.00 0.02 0.02 49 1003.0
20260505171043 53 156 8.0 11.0 0.00 0.02 0.02 49 1003.0
20260505170541 53 164 7.0 10.0 0.00 0.02 0.02 48 1003.0
20260505170040 52 153 7.0 11.0 0.00 0.02 0.02 46 1003.0
20260505165541 52 178 6.0 11.0 0.00 0.02 0.02 46 1003.0
20260505165037 52 176 5.0 11.0 0.00 0.02 0.02 46 1003.0
20260505164535 51 191 8.0 10.0 0.00 0.02 0.02 46 1003.1
20260505164035 51 184 5.0 8.0 0.00 0.02 0.02 41 1003.1
20260505163532 51 188 3.0 6.0 0.00 0.02 0.02 31 1003.2
20260505163032 51 188 3.0 6.0 0.00 0.02 0.02 31 1003.2
20260505162530 51 203 3.0 8.0 0.00 0.02 0.02 32 1003.2
20260505162028 50 192 5.0 10.0 0.00 0.02 0.02 35 1003.2
20260505161538 51 186 6.0 10.0 0.00 0.02 0.02 36 1003.2
20260505161025 50 167 7.0 9.0 0.00 0.02 0.02 40 1003.0
20260505160526 50 174 6.0 9.0 0.00 0.02 0.02 41 1003.0
20260505153015 50 145 5.0 12.0 0.00 0.02 0.02 48 1002.8
20260505152512 50 149 5.0 9.0 0.00 0.02 0.02 48 1002.8
20260505152010 50 158 4.0 9.0 0.00 0.02 0.02 48 1002.9
20260505151508 50 182 3.0 7.0 0.00 0.02 0.02 45 1002.8
20260505151006 50 201 0.0 8.0 0.00 0.02 0.02 43 1002.9
20260505150505 50 201 2.0 8.0 0.00 0.02 0.02 43 1002.8
20260505140547 49 279 2.0 4.0 0.00 0.02 0.02 22 1002.9
20260505125026 47 135 1.0 3.0 0.00 0.02 0.02 1 1001.9
20260505124525 47 135 1.0 4.0 0.00 0.02 0.02 1 1001.9
20260505124027 47 135 1.0 4.0 0.00 0.02 0.02 1 1001.9
20260505123521 47 135 1.0 4.0 0.00 0.02 0.02 1 1001.9
20260505123021 48 135 2.0 6.0 0.00 0.02 0.02 1 1001.8
20260505122520 48 138 3.0 6.0 0.00 0.02 0.02 1 1001.8
20260505122021 48 138 3.0 6.0 0.00 0.02 0.02 1 1001.9
20260505121530 48 138 3.0 7.0 0.00 0.02 0.02 1 1001.8
20260505121015 48 171 4.0 7.0 0.00 0.02 0.02 1 1001.8
20260505120517 49 153 5.0 8.0 0.00 0.02 0.02 1 1001.7
20260505120011 48 179 5.0 8.0 0.00 0.02 0.02 1 1001.7
20260505115510 48 158 4.0 8.0 0.00 0.02 0.02 1 1001.7
20260505115008 47 190 3.0 6.0 0.00 0.02 0.02 1 1001.6
20260505114507 47 190 3.0 5.0 0.00 0.02 0.02 1 1001.5
20260505114006 48 190 1.0 5.0 0.00 0.02 0.02 1 1001.5
20260505113503 47 190 2.0 6.0 0.00 0.02 0.02 1 1001.6
20260505113003 47 200 4.0 6.0 0.00 0.02 0.02 1 1001.5
20260505112501 47 176 3.0 8.0 0.00 0.02 0.02 1 1001.4
20260505112100 47 161 5.0 8.0 0.00 0.02 0.02 1 1001.5
20260505111558 48 159 4.0 7.0 0.00 0.02 0.02 1 1001.4
20260505111057 48 188 2.0 5.0 0.00 0.02 0.02 1 1001.3
20260505110558 48 187 1.0 6.0 0.00 0.02 0.02 1 1001.3
20260505110105 48 188 3.0 7.0 0.00 0.02 0.02 1 1001.3
20260505102042 47 130 3.0 5.0 0.01 0.02 0.02 1 1001.4
20260505101548 48 130 3.0 5.0 0.01 0.02 0.02 1 1001.4
20260505101040 48 108 2.0 4.0 0.01 0.02 0.02 1 1001.2
20260505100540 48 108 2.0 4.0 0.01 0.02 0.02 1 1001.3
20260505100036 48 108 3.0 7.0 0.01 0.02 0.02 1 1001.3
20260505095538 48 93 2.0 7.0 0.01 0.02 0.02 1 1001.5
20260505095033 49 118 4.0 7.0 0.01 0.02 0.02 1 1001.5
20260505094531 49 111 4.0 7.0 0.01 0.02 0.02 1 1001.6
20260505094030 50 123 3.0 5.0 0.01 0.02 0.02 1 1001.6
20260505093528 49 175 2.0 6.0 0.01 0.02 0.02 1 1001.6
20260505093027 49 261 0.0 6.0 0.01 0.01 0.01 1 1001.6
20260505092528 48 359 1.0 4.0 0.01 0.01 0.01 1 1001.7
20260505092025 49 191 1.0 3.0 0.01 0.01 0.01 1 1001.9
20260505091523 49 191 0.0 2.0 0.01 0.01 0.01 1 1002.0
20260505091022 49 191 0.0 2.0 0.01 0.01 0.01 1 1002.1
20260505090521 49 191 0.0 0.0 0.01 0.01 0.01 1 1002.2
20260505090035 49 191 0.0 3.0 0.01 0.01 0.01 1 1002.3
20260505085517 49 191 0.0 4.0 0.01 0.01 0.01 1 1002.5
20260505085016 49 191 2.0 3.0 0.01 0.01 0.01 1 1002.6
20260505084514 49 191 0.0 4.0 0.01 0.01 0.01 1 1002.7
20260505084012 49 191 1.0 4.0 0.01 0.01 0.01 1 1002.7
20260505083513 49 191 0.0 4.0 0.01 0.01 0.01 1 1002.5
20260505083010 49 191 1.0 7.0 0.00 0.00 0.00 1 1002.6
20260505082512 49 191 3.0 10.0 0.00 0.00 0.00 1 1002.7
20260505082008 49 126 5.0 10.0 0.00 0.00 0.00 1 1002.6
20260505081506 49 147 6.0 9.0 0.00 0.00 0.00 1 1002.7
20260505081008 49 140 5.0 7.0 0.00 0.00 0.00 1 1002.7
20260505080503 49 166 4.0 6.0 0.00 0.00 0.00 1 1002.7
20260505075501 50 164 5.0 6.0 0.00 0.00 0.00 1 1002.8
20260505075100 50 183 4.0 6.0 0.00 0.00 0.00 1 1002.8
20260505074559 49 138 1.0 5.0 0.00 0.00 0.00 1 1002.7
20260505074059 49 138 2.0 5.0 0.00 0.00 0.00 1 1002.7
20260505073558 49 138 2.0 8.0 0.00 0.00 0.00 1 1002.8
20260505073056 50 138 4.0 9.0 0.00 0.00 0.00 1 1002.8
20260505072554 50 130 4.0 9.0 0.00 0.00 0.00 1 1002.8
20260505072051 50 113 6.0 10.0 0.00 0.00 0.00 1 1002.8
20260505071552 50 142 6.0 10.0 0.00 0.00 0.00 1 1002.8
20260505071048 50 179 7.0 10.0 0.00 0.00 0.00 1 1002.8
20260505070547 50 174 5.0 10.0 0.00 0.00 0.00 1 1002.8
20260505070045 51 196 4.0 7.0 0.00 0.00 0.00 1 1002.7
20260505065544 51 182 4.0 11.0 0.00 0.00 0.00 1 1002.5
20260505065042 52 168 6.0 14.0 0.00 0.00 0.00 10 1002.5
20260505064543 53 154 9.0 16.0 0.00 0.00 0.00 27 1002.5
20260505064040 53 161 10.0 16.0 0.00 0.00 0.00 31 1002.4
20260505063540 53 152 13.0 16.0 0.00 0.00 0.00 28 1002.4
20260505063040 52 132 11.0 15.0 0.00 0.00 0.00 27 1002.3
20260505062539 52 140 10.0 14.0 0.00 0.00 0.00 27 1002.4
20260505062040 52 135 10.0 15.0 0.00 0.00 0.00 27 1002.4
20260505061538 52 153 11.0 15.0 0.00 0.00 0.00 29 1002.4
20260505061034 53 133 8.0 15.0 0.00 0.00 0.00 32 1002.4
20260505060533 53 105 10.0 15.0 0.00 0.00 0.00 31 1002.5
20260505060036 53 113 9.0 15.0 0.00 0.00 0.00 31 1002.6
20260505055532 53 134 9.0 17.0 0.00 0.00 0.00 30 1002.5
20260505055032 53 132 10.0 14.0 0.00 0.00 0.00 29 1002.4
20260505054533 53 107 9.0 15.0 0.00 0.00 0.00 27 1002.4
20260505054031 53 122 10.0 16.0 0.00 0.00 0.00 26 1002.3
20260505053532 53 126 10.0 14.0 0.00 0.00 0.00 24 1002.3
20260505053035 53 120 11.0 14.0 0.00 0.00 0.00 23 1002.3
20260505052531 53 154 8.0 16.0 0.00 0.00 0.00 22 1002.3
20260505052031 53 128 10.0 17.0 0.00 0.00 0.00 19 1002.4
20260505051531 52 108 11.0 17.0 0.00 0.00 0.00 17 1002.3
20260505051030 52 146 9.0 15.0 0.00 0.00 0.00 14 1002.4
20260505050530 52 150 11.0 15.0 0.00 0.00 0.00 17 1002.4
20260505041525 55 132 13.0 20.0 0.00 0.00 0.00 48 1001.8
20260505041026 56 149 14.0 22.0 0.00 0.00 0.00 51 1001.6
20260505040524 56 142 15.0 23.0 0.00 0.00 0.00 52 1001.3
20260505040023 57 140 13.0 20.0 0.00 0.00 0.00 52 1000.9
20260505035526 56 135 13.0 20.0 0.00 0.00 0.00 52 1000.9
20260505035023 56 133 9.0 14.0 0.00 0.00 0.00 52 1000.8
20260505034524 57 127 8.0 14.0 0.00 0.00 0.00 52 1000.6
20260505034023 57 105 9.0 12.0 0.00 0.00 0.00 52 1000.6
20260505033525 57 130 9.0 12.0 0.00 0.00 0.00 52 1000.5
20260505033033 57 149 5.0 8.0 0.00 0.00 0.00 52 1000.6
20260505032623 57 151 5.0 10.0 0.00 0.00 0.00 52 1000.5
20260505032023 57 135 5.0 9.0 0.00 0.00 0.00 52 1000.5
20260505031523 57 112 3.0 11.0 0.00 0.00 0.00 52 1000.3
20260505031022 57 152 6.0 16.0 0.00 0.00 0.00 52 1000.2
20260505030521 58 134 8.0 16.0 0.00 0.00 0.00 52 1000.2
20260505030021 58 138 9.0 16.0 0.00 0.00 0.00 51 1000.2
20260505025521 58 135 10.0 17.0 0.00 0.00 0.00 51 1000.1
20260505025021 58 157 10.0 17.0 0.00 0.00 0.00 51 1000.1
20260505024527 58 136 9.0 13.0 0.00 0.00 0.00 51 1000.1
20260505024022 58 165 9.0 19.0 0.00 0.00 0.00 51 1000.1
20260505023520 58 140 12.0 22.0 0.00 0.00 0.00 51 1000.1
20260505023031 59 159 14.0 21.0 0.00 0.00 0.00 50 1000.0
20260505022520 60 159 15.0 21.0 0.00 0.00 0.00 49 999.9
20260505022020 60 175 15.0 22.0 0.00 0.00 0.00 48 999.9
20260505021519 61 177 16.0 19.0 0.00 0.00 0.00 47 999.8
20260505021021 62 160 14.0 23.0 0.00 0.00 0.00 45 999.9
20260505020518 63 168 15.0 23.0 0.00 0.00 0.00 43 999.8
20260505020019 64 153 10.0 16.0 0.00 0.00 0.00 40 999.6
20260505015620 64 145 11.0 16.0 0.00 0.00 0.00 39 999.4
20260505015018 64 142 9.0 13.0 0.00 0.00 0.00 38 999.2
20260505014531 65 135 9.0 13.0 0.00 0.00 0.00 38 999.2
20260505014018 65 130 7.0 11.0 0.00 0.00 0.00 37 999.1
20260505013516 66 122 6.0 10.0 0.00 0.00 0.00 37 999.1
20260505013017 66 157 5.0 8.0 0.00 0.00 0.00 37 999.0
20260505012516 67 184 3.0 5.0 0.00 0.00 0.00 37 999.1
20260505012016 67 196 1.0 5.0 0.00 0.00 0.00 37 999.1
20260505011515 68 217 2.0 5.0 0.00 0.00 0.00 36 999.0
20260505011014 68 218 2.0 4.0 0.00 0.00 0.00 35 999.1
20260505010514 68 228 1.0 5.0 0.00 0.00 0.00 36 999.2
20260505010013 68 239 1.0 6.0 0.00 0.00 0.00 37 999.2
20260505005511 68 245 1.0 7.0 0.00 0.00 0.00 36 999.2
20260505005011 67 245 2.0 7.0 0.00 0.00 0.00 36 999.3
20260505004515 67 255 1.0 8.0 0.00 0.00 0.00 38 999.4
20260505004009 67 249 2.0 9.0 0.00 0.00 0.00 39 999.4
20260505003507 67 222 7.0 9.0 0.00 0.00 0.00 40 999.6
20260505003007 67 197 1.0 6.0 0.00 0.00 0.00 39 999.6
20260505002507 67 228 2.0 6.0 0.00 0.00 0.00 37 999.6
20260505002007 67 220 3.0 6.0 0.00 0.00 0.00 38 999.6
20260505001507 67 184 0.0 5.0 0.00 0.00 0.00 36 999.6
20260505001007 67 184 3.0 5.0 0.00 0.00 0.00 36 999.7
20260505000505 67 199 0.0 6.0 0.00 0.00 0.00 36 999.7
20260505000010 68 165 4.0 8.0 0.00 0.00 0.00 35 999.7
20260504235505 68 325 3.0 8.0 0.00 0.00 0.00 35 999.7
20260504235004 68 288 2.0 8.0 0.00 0.00 0.00 36 999.7
20260504234504 68 244 2.0 8.0 0.00 0.00 0.00 36 999.7
20260504234006 67 264 1.0 9.0 0.00 0.00 0.00 36 999.7
20260504233504 67 267 2.0 7.0 0.00 0.00 0.00 37 999.7
20260504233003 67 345 0.0 3.0 0.00 0.00 0.00 37 999.7
20260504232505 67 345 1.0 6.0 0.00 0.00 0.00 37 999.7
20260504232003 66 302 1.0 6.0 0.00 0.00 0.00 37 999.7
20260504231502 66 246 1.0 4.0 0.00 0.00 0.00 37 999.8
20260504231002 66 317 2.0 5.0 0.00 0.00 0.00 37 999.8
20260504230502 66 355 0.0 5.0 0.00 0.00 0.00 37 999.9
20260504230101 66 359 2.0 5.0 0.00 0.00 0.00 37 999.9
20260504225600 66 359 0.0 5.0 0.00 0.00 0.00 40 1000.0
20260504225059 65 28 0.0 4.0 0.00 0.00 0.00 41 1000.2
20260504224600 65 355 1.0 9.0 0.00 0.00 0.00 40 1000.2
20260504224058 64 28 3.0 9.0 0.00 0.00 0.00 42 1000.3
20260504223601 64 43 3.0 10.0 0.00 0.00 0.00 42 1000.5
20260504223101 63 95 6.0 14.0 0.00 0.00 0.00 43 1000.6
20260504222559 63 100 9.0 16.0 0.00 0.00 0.00 43 1000.6
20260504222058 64 109 10.0 14.0 0.00 0.00 0.00 42 1000.6
20260504221558 64 93 9.0 14.0 0.00 0.00 0.00 42 1000.6
20260504221057 65 84 9.0 14.0 0.00 0.00 0.00 43 1000.7
20260504220557 65 107 8.0 12.0 0.00 0.00 0.00 42 1000.8
20260504220056 64 155 2.0 8.0 0.00 0.00 0.00 43 1000.9
20260504215601 63 128 2.0 8.0 0.00 0.00 0.00 43 1001.0
20260504215056 63 124 4.0 10.0 0.00 0.00 0.00 44 1001.1
20260504214657 63 136 4.0 10.0 0.00 0.00 0.00 45 1001.2
20260504214055 63 130 6.0 9.0 0.00 0.00 0.00 46 1001.3
20260504213556 63 84 2.0 6.0 0.00 0.00 0.00 44 1001.3
20260504213057 63 9 2.0 6.0 0.00 0.00 0.00 42 1001.4
20260504212556 63 59 3.0 8.0 0.00 0.00 0.00 44 1001.7
20260504212058 63 59 3.0 12.0 0.00 0.00 0.00 44 1001.7
20260504211556 63 24 5.0 17.0 0.00 0.00 0.00 45 1001.8
20260504211055 63 57 9.0 17.0 0.00 0.00 0.00 45 1001.7
20260504210554 63 41 11.0 22.0 0.00 0.00 0.00 45 1001.6
20260504205556 65 51 12.0 20.0 0.00 0.00 0.00 42 1001.4
20260504205058 64 53 13.0 24.0 0.00 0.00 0.00 44 1001.1
20260504204610 65 63 17.0 24.0 0.00 0.00 0.00 41 1000.9
20260504204055 65 49 8.0 18.0 0.00 0.00 0.00 40 1000.9
20260504203554 66 14 10.0 18.0 0.00 0.00 0.00 40 1000.8
20260504203124 66 19 12.0 20.0 0.00 0.00 0.00 40 1000.9
20260504202554 66 359 13.0 20.0 0.00 0.00 0.00 40 1000.8
20260504202054 66 332 13.0 22.0 0.00 0.00 0.00 39 1000.7
20260504201553 66 345 14.0 22.0 0.00 0.00 0.00 39 1000.7
20260504201053 67 329 12.0 16.0 0.00 0.00 0.00 38 1000.7
20260504200552 67 318 8.0 18.0 0.00 0.00 0.00 38 1000.7
20260504200052 66 339 11.0 18.0 0.00 0.00 0.00 37 1000.7
20260504195552 67 313 2.0 14.0 0.00 0.00 0.00 36 1000.6
20260504195052 66 201 4.0 14.0 0.00 0.00 0.00 38 1000.4
20260504194552 67 190 3.0 10.0 0.00 0.00 0.00 38 1000.4
20260504194052 67 195 5.0 10.0 0.00 0.00 0.00 38 1000.4
20260504193552 67 228 7.0 10.0 0.00 0.00 0.00 38 1000.5
20260504193052 67 175 5.0 10.0 0.00 0.00 0.00 38 1000.4
20260504192551 68 220 5.0 12.0 0.00 0.00 0.00 38 1000.4
20260504192051 68 244 5.0 11.0 0.00 0.00 0.00 36 1000.4
20260504191554 68 253 5.0 12.0 0.00 0.00 0.00 35 1000.4
20260504191051 68 252 7.0 16.0 0.00 0.00 0.00 36 1000.3
20260504190550 68 249 10.0 16.0 0.00 0.00 0.00 35 1000.3
20260504190053 68 227 7.0 16.0 0.00 0.00 0.00 35 1000.3
20260504185550 68 258 9.0 16.0 0.00 0.00 0.00 36 1000.4
20260504185049 68 265 10.0 20.0 0.00 0.00 0.00 34 1000.4
20260504184549 69 246 13.0 20.0 0.00 0.00 0.00 34 1000.2
20260504184048 70 311 0.0 6.0 0.00 0.00 0.00 32 1000.3
20260504183548 70 251 1.0 8.0 0.00 0.00 0.00 32 1000.5
20260504183046 71 253 3.0 12.0 0.00 0.00 0.00 32 1000.7
20260504182546 71 209 4.0 12.0 0.00 0.00 0.00 32 1000.7
20260504182046 72 207 6.0 10.0 0.00 0.00 0.00 33 1000.7
20260504181544 71 235 3.0 9.0 0.00 0.00 0.00 33 1000.8
20260504181043 71 233 3.0 14.0 0.00 0.00 0.00 32 1000.8
20260504180541 71 134 8.0 14.0 0.00 0.00 0.00 33 1001.1
20260504180041 70 157 2.0 9.0 0.00 0.00 0.00 33 1001.1
20260504175540 70 88 4.0 11.0 0.00 0.00 0.00 33 1001.1
20260504175040 70 262 2.0 10.0 0.00 0.00 0.00 33 1001.1
20260504174540 70 197 5.0 10.0 0.00 0.00 0.00 33 1001.3
20260504174039 70 107 8.0 12.0 0.00 0.00 0.00 34 1001.3
20260504173537 70 43 4.0 12.0 0.00 0.00 0.00 34 1001.5